This is the latest recevied weather packets stored in our database for station/object WX4LTG. If no packets are shown the sender has not sent any weather packets the latest 10 day(s).
| Time | Temp. | Humidity | Pressure | Rain* | Wind** | Luminosity | Snow |
|---|---|---|---|---|---|---|---|
| 1777419611 | 28.89° C | 16% | 1012.8 hPa | 0 mm | - | 318 W/m² | - |
| 1777419310 | 28.89° C | 16% | 1012.9 hPa | 0 mm | - | 299 W/m² | - |
| 1777419009 | 28.33° C | 16% | 1013 hPa | 0 mm | - | 334 W/m² | - |
| 1777418708 | 28.89° C | 16% | 1012.7 hPa | 0 mm | - | 358 W/m² | - |
| 1777418405 | 28.89° C | 16% | 1013 hPa | 0 mm | - | 341 W/m² | - |
| 1777418101 | 30° C | 16% | 1013 hPa | 0 mm | - | 381 W/m² | - |
| 1777417797 | 30° C | 15% | 1013.2 hPa | 0 mm | - | 395 W/m² | - |
| 1777417492 | 28.89° C | 15% | 1013.2 hPa | 0 mm | - | 409 W/m² | - |
| 1777417189 | 28.89° C | 15% | 1013.3 hPa | 0 mm | - | 401 W/m² | - |
| 1777416885 | 28.89° C | 15% | 1013.3 hPa | 0 mm | - | 441 W/m² | - |
| 1777416580 | 28.89° C | 15% | 1013.2 hPa | 0 mm | - | 466 W/m² | - |
| 1777416277 | 28.89° C | 15% | 1013.6 hPa | 0 mm | - | 419 W/m² | - |
| 1777415976 | 28.89° C | 15% | 1013.3 hPa | 0 mm | - | 418 W/m² | - |
| 1777415672 | 28.89° C | 16% | 1013.6 hPa | 0 mm | - | 472 W/m² | - |
| 1777415368 | 28.89° C | 16% | 1013.6 hPa | 0 mm | - | 495 W/m² | - |
| 1777415067 | 28.89° C | 15% | 1013.4 hPa | 0 mm | - | 490 W/m² | - |
| 1777414767 | 28.33° C | 15% | 1013.8 hPa | 0 mm | - | 525 W/m² | - |
| 1777414463 | 28.89° C | 16% | 1013.9 hPa | 0 mm | - | 520 W/m² | - |
| 1777414162 | 28.89° C | 16% | 1014.1 hPa | 0 mm | - | 496 W/m² | - |
| 1777413858 | 27.78° C | 16% | 1014.1 hPa | 0 mm | - | 502 W/m² | - |
| 1777413554 | 27.78° C | 16% | 1014.1 hPa | 0 mm | - | 507 W/m² | - |
| 1777413250 | 28.33° C | 16% | 1014.1 hPa | 0 mm | - | 586 W/m² | - |
| 1777412945 | 28.33° C | 15% | 1014.2 hPa | 0 mm | - | 598 W/m² | - |
| 1777412644 | 28.33° C | 16% | 1014.4 hPa | 0 mm | - | 607 W/m² | - |
| 1777412342 | 27.78° C | 17% | 1014.4 hPa | 0 mm | - | 627 W/m² | - |
* Rain latest hour (hover to see other rain measurements)
** Current wind speed in m/s (hover to see current wind gust speed)